Probability
2 2 1 2 3 3 3 4 4 4 3 4 5 4 2 1 0 0 1 2 1 0 1 2 4 5 5 6 6 6 4 3 4 4 4 3 3 3 2 2 3 1 0
4 4 4 3 3 3 4 4 5 5 4 5 5 4 2 1 0 0 1 1 1 0 1 2 3 4 5 6 6 5 4 3 4 5 4 4 4 4 3 4 3 2 1
5 7 7 6 5 4 4 6 8 9 8 7 5 4 3 1 1 1 1 0 0 0 1 2 3 4 5 6 6 4 3 3 4 5 5 5 5 5 5 5 4 2 1
5 7 8 8 7 5 4 7 11 13 11 9 8 6 4 2 2 1 1 1 0 1 1 2 3 5 7 8 5 4 3 3 3 4 5 6 6 5 5 5 3 1 1
5 6 7 9 8 5 4 7 11 13 12 11 10 9 6 5 3 3 4 3 2 2 2 3 4 7 8 8 6 4 3 3 4 5 6 7 7 5 4 4 3 1 1
5 5 6 8 7 5 4 6 9 11 11 10 11 10 9 8 6 5 6 7 5 4 3 4 6 8 8 8 7 7 7 7 9 9 9 10 9 8 7 6 5 3 3
5 5 6 8 9 8 6 7 10 11 10 10 10 9 9 9 9 7 7 7 6 4 4 4 6 7 7 7 9 12 13 14 15 14 13 13 13 13 13 11 9 7 6
6 6 7 9 12 12 10 11 14 14 13 11 9 8 8 8 8 7 6 6 5 4 4 5 6 7 8 9 12 16 19 20 19 18 16 15 15 16 16 15 13 10 8
7 7 7 8 11 13 12 13 17 18 16 13 11 9 9 8 7 6 6 5 6 6 7 7 8 10 13 15 18 21 23 22 21 21 21 19 18 17 17 17 16 13 11
9 9 9 9 11 13 13 15 19 20 19 17 15 14 12 10 8 6 6 7 9 11 13 13 13 16 21 24 25 26 26 25 23 24 24 22 20 18 18 19 20 19 17
13 14 14 15 16 16 16 18 21 23 23 22 21 18 15 13 11 9 8 10 12 14 16 17 19 23 27 30 30 28 28 27 24 24 24 23 21 20 20 22 23 23 22
19 20 21 23 23 21 20 22 24 25 27 27 25 22 19 18 16 14 14 14 15 15 17 20 24 26 29 32 32 29 29 28 25 24 24 23 23 23 24 25 25 24 24
24 24 26 29 29 27 26 25 25 26 27 28 28 27 26 25 23 22 21 21 20 19 21 25 27 28 29 31 33 31 29 28 26 25 24 22 22 24 25 25 25 23 22
25 26 29 32 32 31 30 28 26 25 24 25 27 30 31 31 29 28 28 28 29 29 30 32 31 30 30 31 33 31 28 27 27 25 24 21 20 20 21 20 20 19 18
25 27 30 31 31 30 29 29 28 26 25 26 27 31 36 36 33 31 31 32 34 36 36 35 34 32 30 28 29 28 26 26 27 26 25 23 19 15 13 12 12 14 14
25 27 29 28 27 27 30 31 30 29 30 31 31 35 40 39 34 31 30 31 33 36 36 34 33 31 27 22 20 21 22 24 25 25 25 23 18 13 9 6 5 7 10
24 26 27 25 23 25 29 32 33 33 35 37 38 41 44 41 35 32 31 32 34 36 36 34 32 31 26 18 12 13 17 20 22 23 24 23 19 15 11 7 5 5 6
25 27 27 22 19 22 26 31 35 38 40 43 45 45 45 42 38 35 34 36 37 38 38 37 35 33 27 17 9 9 14 19 21 23 25 26 23 17 14 11 9 9 9
27 30 31 25 21 21 23 28 35 41 44 46 48 47 44 40 36 34 35 38 40 39 38 37 36 33 26 17 8 8 15 20 22 25 27 28 24 17 12 11 13 13 14
29 32 33 30 26 25 25 28 34 39 42 43 45 45 42 35 29 29 34 37 37 35 33 33 32 29 24 17 8 8 18 25 26 27 29 27 22 13 7 9 13 15 16
32 32 31 29 27 26 28 31 34 37 38 39 39 38 36 30 26 27 32 33 31 29 28 28 27 25 22 17 9 8 17 25 28 27 27 24 17 7 3 4 9 13 14
34 31 27 26 25 25 28 33 35 38 38 36 34 32 30 29 28 30 31 29 27 26 26 26 25 23 22 18 11 6 9 17 24 25 23 19 12 3 0 1 3 5 5
34 30 26 26 26 27 30 34 37 38 37 34 32 31 30 30 32 33 31 30 29 28 27 26 25 23 21 18 14 8 5 7 13 18 16 12 6 2 0 0 0 0 1
33 31 31 32 30 29 31 34 36 35 33 31 31 31 31 31 33 33 30 29 30 30 28 26 24 23 20 17 14 12 10 9 10 12 12 8 5 3 4 5 4 4 4
32 33 36 37 35 30 29 30 31 31 30 29 30 29 28 30 31 30 25 23 24 25 24 22 21 20 17 13 10 11 13 13 12 12 14 12 9 9 10 11 10 9 9
32 34 38 39 37 31 27 26 27 28 27 29 29 28 27 28 29 27 20 16 17 18 17 17 18 17 13 8 5 7 11 11 10 13 17 16 13 13 13 13 13 12 12
Wind_Speed
9 9 8 8 7 7 7 7 7 6 5 4 4 3 3 2 2 2 3 2 2 2 2 1 2 2 1 1 2 1 2 2 1 1 1 2 2 1 2 2 1 1 1
10 10 10 9 9 8 8 8 8 7 6 4 3 2 1 1 1 1 2 2 2 2 3 2 2 2 2 2 2 2 1 1 2 2 2 2 3 3 2 2 2 1 1
12 12 11 11 10 9 9 8 8 7 7 6 4 3 3 2 3 3 3 3 3 3 2 2 2 2 2 2 2 2 2 2 2 2 3 2 1 0 2 2 1 1 1
13 13 13 12 11 11 10 9 8 8 7 7 6 5 4 3 2 2 2 3 3 3 3 3 3 3 2 2 3 2 2 3 2 2 2 3 3 2 1 2 2 2 2
13 13 13 13 12 11 10 10 9 9 8 8 7 6 5 4 3 3 3 3 3 3 3 3 3 3 2 2 2 1 3 3 3 2 2 2 2 4 3 2 1 2 2
13 13 13 12 12 11 11 10 10 10 9 9 8 8 6 5 4 4 4 4 3 3 4 4 3 4 3 3 3 3 4 3 2 3 2 2 2 3 3 3 3 2 1
13 13 14 14 13 13 12 11 11 10 10 9 9 8 7 7 6 5 5 4 4 4 4 4 4 3 3 3 3 4 3 4 3 4 3 3 3 3 3 3 3 3 2
12 13 14 14 13 13 13 12 12 11 10 10 9 8 8 6 5 6 4 4 4 3 3 4 4 4 4 4 3 3 4 3 3 4 4 4 3 3 3 4 4 4 3
11 12 13 14 14 13 13 13 12 11 10 10 9 8 8 7 6 5 5 4 4 4 4 5 4 4 4 4 4 3 3 3 4 4 5 5 3 4 3 4 4 4 4
10 10 11 12 12 12 12 12 12 11 10 10 9 8 8 7 6 6 5 4 4 4 4 5 5 4 5 5 5 4 4 4 4 3 3 4 4 3 3 4 4 4 5
9 9 9 10 10 10 11 11 11 11 10 9 9 8 8 7 7 6 6 6 5 6 6 5 5 5 5 4 4 4 4 4 4 4 4 4 4 4 4 4 4 4 4
6 8 9 9 10 10 10 11 11 11 10 9 9 8 8 7 7 7 7 6 6 6 6 5 5 5 5 5 5 5 4 4 4 4 4 4 4 4 5 4 5 4 5
6 7 8 8 9 9 9 10 10 10 10 10 9 9 8 8 7 7 6 6 6 6 5 5 5 5 5 5 5 5 5 4 4 4 4 4 4 5 4 4 5 5 5
6 6 7 7 7 8 8 9 9 9 9 9 9 9 8 8 7 7 6 6 5 5 5 5 5 5 5 4 5 5 5 5 4 4 4 4 4 4 4 4 5 5 5
6 7 7 6 6 7 8 8 8 8 9 9 9 9 8 7 7 6 6 6 6 6 5 5 5 5 5 4 4 5 5 5 4 4 4 3 3 2 3 3 3 4 4
6 6 6 6 6 6 7 7 8 8 9 9 9 8 7 7 7 6 6 6 6 5 5 5 5 5 4 2 2 4 4 4 4 5 4 4 4 4 4 3 3 3 4
4 4 5 5 6 6 6 6 7 7 7 7 6 6 6 6 6 6 6 6 6 5 5 5 5 5 3 3 4 4 5 5 4 4 4 4 2 3 3 5 6 5 5
3 4 4 5 5 5 6 6 6 7 7 6 6 6 6 6 5 5 5 5 5 5 5 5 5 4 3 4 5 5 6 5 5 4 4 4 3 2 3 4 4 4 4
2 3 3 4 4 5 5 5 6 6 6 6 6 6 6 6 6 6 5 5 4 5 5 4 4 4 4 4 5 6 5 4 5 4 3 3 3 2 3 5 5 5 4
2 2 3 3 4 4 4 5 5 5 5 5 5 5 6 6 6 5 5 4 5 5 4 4 4 4 4 3 5 5 4 4 4 4 4 3 3 3 4 5 5 6 5
2 3 3 3 3 3 4 4 4 4 4 4 4 4 5 5 5 4 4 5 5 4 4 3 3 3 3 4 4 4 4 4 4 3 3 2 3 4 4 6 5 5 6
2 3 3 3 2 3 4 4 4 3 3 3 4 4 4 4 4 4 4 5 5 5 4 4 3 3 3 2 3 4 5 5 4 3 2 0 2 4 5 5 4 6 6
2 2 3 3 2 2 3 3 2 3 3 3 3 3 3 3 3 4 5 5 5 4 4 4 3 3 2 3 5 5 5 5 4 2 2 1 3 5 5 6 6 6 5
1 2 2 2 2 2 1 2 2 2 3 3 3 3 3 3 3 3 3 3 3 4 4 4 3 3 3 3 3 3 4 4 4 3 2 4 6 5 4 4 5 5 4
0 1 1 1 2 1 1 1 2 3 4 4 3 4 3 3 3 2 0 2 1 1 3 3 3 3 3 1 1 2 2 2 1 2 3 3 3 3 3 3 3 4 4
1 1 1 1 1 1 1 1 2 3 4 3 3 3 3 3 3 3 2 6 3 3 1 1 2 0 2 2 2 2 2 1 2 3 3 3 3 3 3 3 3 3 4
Wind_Direction
190 188 190 190 184 180 180 183 183 175 182 184 189 181 179 182 170 172 164 180 187 169 205 203 158 204 169 184 189 189 170 189 179 220 201 198 197 201 207 225 244 202 202
187 187 191 191 189 185 184 184 185 182 188 181 192 192 188 190 175 181 165 192 186 195 193 192 207 177 174 183 192 199 243 203 193 253 257 226 176 180 182 201 211 221 209
193 189 192 193 192 189 189 188 186 183 190 187 189 181 179 207 191 186 178 186 190 192 207 194 214 201 219 180 198 204 220 235 221 243 280 293 351 107 159 189 211 229 249
198 193 192 192 193 191 187 187 185 186 187 190 198 202 203 205 191 197 166 175 185 195 206 214 208 225 224 184 219 181 223 236 246 212 245 288 333 295 260 197 180 195 229
198 196 195 191 192 189 185 183 184 188 189 194 195 204 210 206 192 183 169 199 185 203 212 218 217 218 226 214 245 211 240 236 255 258 241 226 224 249 268 270 249 226 218
198 197 194 189 191 188 186 183 183 188 189 195 199 204 207 208 203 193 189 203 198 199 201 210 214 220 221 211 217 218 214 243 266 272 265 249 244 245 252 267 257 249 224
195 194 191 188 189 190 189 185 183 188 190 194 200 202 206 206 206 209 201 212 205 198 194 212 216 225 217 219 213 206 224 219 228 242 252 258 260 266 263 264 269 269 237
192 193 191 189 190 191 191 187 185 190 191 193 198 201 206 212 209 211 222 212 220 210 193 207 217 222 221 219 207 216 208 210 225 241 253 260 260 258 252 260 267 264 251
187 189 187 189 189 190 190 190 187 189 191 192 192 197 203 215 217 208 219 223 218 212 203 213 220 220 219 223 217 224 223 216 226 231 227 247 256 253 255 256 259 271 274
184 183 183 186 186 186 186 189 188 189 189 190 194 191 196 203 210 216 216 223 222 218 209 213 219 219 214 212 218 220 216 225 229 241 254 258 261 259 251 252 253 256 272
180 178 178 177 176 179 180 183 183 185 187 190 191 194 195 199 205 211 214 214 215 210 211 214 216 217 216 212 214 230 223 228 233 238 238 247 267 268 259 249 250 249 253
174 172 170 170 174 178 179 179 181 184 186 186 186 191 195 200 206 208 212 211 211 212 211 213 216 219 216 213 215 225 225 228 233 239 246 252 248 249 262 257 253 248 246
162 165 166 169 175 179 180 180 183 185 185 182 185 188 194 197 203 206 206 208 208 210 211 213 219 222 220 217 219 226 230 233 237 242 242 250 253 253 256 259 259 255 248
165 165 164 169 173 175 178 183 188 187 186 186 189 191 197 200 201 201 202 203 204 205 206 205 212 218 224 225 229 228 233 237 241 248 249 251 252 256 258 253 255 260 260
172 171 168 167 170 172 176 182 186 188 189 190 194 195 195 196 198 199 203 202 202 202 199 203 208 214 218 224 229 229 227 231 238 243 243 244 243 270 276 280 274 264 260
180 174 170 169 174 176 178 178 183 186 189 194 199 195 193 193 195 195 198 200 202 200 199 205 210 213 216 183 214 244 236 236 238 242 243 232 212 205 205 232 267 274 258
177 173 175 177 178 177 175 176 177 178 183 189 194 192 190 191 196 198 197 204 204 199 201 207 212 214 212 188 190 219 239 242 245 248 252 255 226 215 229 217 217 225 232
174 177 178 175 173 170 174 176 173 174 179 185 187 186 183 184 189 193 198 205 205 203 204 206 209 213 207 182 192 215 230 244 247 245 244 248 264 251 256 253 240 241 232
175 180 181 169 163 166 166 167 171 173 178 182 184 187 188 188 191 191 196 200 200 202 201 200 202 207 204 187 198 218 226 231 241 241 242 245 244 266 250 246 248 251 246
138 148 148 146 150 155 156 162 166 172 180 183 188 192 195 195 196 195 196 195 197 203 203 200 204 207 206 190 195 218 229 227 234 228 223 207 241 263 232 238 246 251 258
126 134 136 132 135 143 155 163 169 179 187 190 193 197 203 203 198 194 191 194 201 203 206 201 205 206 207 185 185 213 235 236 236 239 239 206 187 226 236 243 247 257 269
140 139 128 121 128 146 160 170 180 179 180 186 191 191 194 205 192 194 196 195 197 201 205 205 213 204 201 195 183 200 232 269 247 259 273 308 172 213 230 235 253 259 261
144 140 132 132 138 152 162 167 167 161 163 176 185 183 186 189 190 196 197 197 197 206 210 211 214 205 189 174 177 189 214 248 255 282 2 317 224 223 220 220 235 244 244
120 143 143 142 143 143 138 158 167 172 173 180 183 182 186 184 178 194 198 200 202 207 211 216 220 210 203 199 186 190 194 206 225 245 216 219 230 236 245 227 220 230 244
159 153 156 160 153 152 162 178 180 180 187 190 191 192 190 175 169 176 172 218 203 267 246 236 232 232 223 181 29 275 241 249 245 245 235 237 234 238 237 237 239 241 233
218 181 176 175 166 165 174 196 195 194 199 202 204 206 197 176 175 157 105 48 53 66 46 319 271 178 100 113 89 43 15 342 264 251 249 251 255 261 266 261 253 244 248